Wind_Speed
14 14 14 13 13 12 12 12 12 11 10 8 5 4 3 3 3 3 3 3 2 2 3 5 5 5 6 7 8 7 6 6 6 6 6 7 7 7 7 7 8 8 8
14 13 13 12 12 12 12 11 11 10 9 8 6 4 4 3 3 3 3 3 3 3 4 5 6 6 7 8 8 9 8 8 8 8 8 8 9 9 9 10 9 9 9
15 14 13 12 11 11 11 11 11 10 9 8 7 5 4 3 3 4 4 3 4 4 5 5 6 6 7 9 9 10 10 10 9 9 9 10 10 10 10 10 10 10 11
15 13 12 11 11 10 11 11 10 10 9 8 6 5 4 3 4 4 4 4 4 5 5 5 6 7 7 8 10 10 10 11 11 11 11 12 12 11 11 11 11 11 12
14 13 12 11 11 10 10 11 10 10 9 7 6 5 4 4 4 4 4 4 5 5 6 6 6 7 8 9 10 11 11 12 12 12 12 13 13 12 13 13 13 13 14
15 14 13 12 11 11 10 10 10 9 8 7 7 6 5 5 5 4 4 5 5 5 6 7 7 7 8 9 10 11 12 13 13 13 13 13 13 13 14 14 15 15 16
14 13 12 12 11 11 10 10 10 9 9 8 7 6 6 5 6 6 5 5 5 5 6 6 6 6 8 9 10 10 12 13 13 13 14 13 13 13 14 15 16 17 18
13 12 11 11 11 10 10 10 10 9 9 9 8 7 6 5 5 6 5 5 5 5 5 6 6 7 7 8 9 10 11 13 13 14 14 14 15 15 15 15 17 17 19
12 11 10 10 10 10 10 10 10 9 9 8 7 6 6 6 5 5 5 5 5 6 6 7 7 8 8 9 10 10 12 12 13 15 15 16 16 17 17 18 18 18 19
13 13 11 8 9 9 9 10 9 8 8 7 7 7 7 6 6 6 6 6 6 7 8 8 8 9 10 10 10 11 12 13 14 15 16 17 18 18 19 20 20 20 21
14 15 13 9 8 9 9 9 8 8 7 7 7 7 7 6 6 6 6 7 7 7 8 9 9 10 10 11 12 12 12 13 14 15 16 17 18 19 20 21 21 22 23
14 15 13 11 11 9 9 10 8 8 8 8 8 8 7 7 7 7 7 7 8 9 9 10 10 11 11 12 12 12 13 14 15 16 17 18 19 20 21 22 23 23 23
15 16 13 12 11 10 10 10 9 8 8 8 9 9 8 8 8 8 8 8 9 9 10 11 11 11 12 12 12 13 14 15 16 17 18 18 19 20 21 22 22 23 24
15 14 13 12 12 11 10 11 10 9 9 9 10 10 9 9 9 9 9 9 10 10 11 11 12 12 12 13 13 14 15 15 16 17 18 19 19 20 21 21 21 22 22
16 15 14 13 13 12 11 12 12 11 11 11 12 11 10 10 10 10 11 11 11 11 11 12 13 13 14 14 14 15 15 16 17 18 19 19 20 21 21 21 21 21 22
17 17 16 14 15 13 13 13 13 12 12 12 12 11 10 10 11 11 11 12 12 12 12 12 13 14 14 15 15 16 17 17 18 19 19 19 19 20 20 21 21 21 22
18 17 17 16 16 15 14 14 14 13 13 13 13 11 11 11 12 11 12 12 12 13 13 13 14 15 15 16 16 17 17 18 19 19 19 20 20 21 21 21 21 21 22
19 18 18 17 16 15 14 14 15 14 14 14 13 13 12 13 13 13 13 14 14 14 14 14 15 16 16 17 17 18 18 19 19 20 20 21 21 21 21 21 21 22 22
22 20 19 18 17 16 16 16 15 15 15 15 15 14 14 14 14 15 15 15 15 15 15 16 16 16 17 18 18 19 19 20 21 21 21 21 21 21 21 22 22 23 23
23 21 20 19 19 18 18 18 18 17 17 17 17 16 16 16 16 17 17 17 16 16 17 17 18 18 19 19 20 21 21 21 21 21 22 21 21 22 22 22 23 24 25
24 22 21 21 21 20 20 20 20 19 18 18 18 18 18 18 18 18 18 18 18 19 19 19 19 20 21 21 21 21 21 21 22 22 22 22 23 23 23 24 25 26 27
25 24 24 23 22 21 21 21 21 21 20 20 20 20 20 20 20 20 20 20 20 21 21 21 22 22 23 23 23 23 23 23 23 24 24 24 25 25 25 26 27 27 28
26 25 25 25 24 24 23 23 23 23 23 23 22 22 22 21 21 21 22 22 22 22 22 23 24 25 25 25 26 26 26 26 26 26 26 27 27 27 28 28 29 29 30
29 28 27 27 27 26 26 26 25 25 25 24 24 24 23 23 23 23 24 25 25 24 25 26 26 27 27 28 28 28 29 29 29 29 29 29 29 30 30 30 30 31 32
32 31 30 29 28 28 28 28 28 27 26 25 25 26 26 25 25 25 26 26 27 27 27 27 28 29 30 30 30 30 30 31 32 32 32 32 32 31 32 32 32 32 33
34 32 31 31 30 30 30 30 29 29 28 28 28 28 27 27 27 27 28 29 30 30 30 30 30 31 31 32 31 32 32 32 33 34 33 33 33 33 33 33 33 33 32
Wind_Direction
351 352 353 357 358 358 0 3 2 3 4 0 351 347 332 317 304 299 300 292 282 245 233 228 233 234 227 221 222 229 233 236 240 245 250 254 257 263 264 267 271 276 279
348 351 349 349 352 354 356 359 358 355 355 356 352 348 338 310 291 280 276 272 271 254 244 236 236 236 231 225 227 234 239 242 248 251 252 255 262 267 269 269 270 272 275
342 344 347 347 347 349 351 354 355 350 348 348 353 340 323 304 288 282 275 265 265 261 254 248 239 240 237 233 234 236 241 245 249 252 254 258 262 267 271 269 268 271 275
339 341 346 346 344 345 346 348 353 352 350 346 345 339 325 303 292 287 274 269 262 259 251 253 246 240 239 237 236 239 245 247 252 256 259 262 262 264 267 271 271 272 274
338 338 341 342 341 339 340 343 349 351 353 349 348 343 325 308 306 288 270 270 271 264 259 264 255 250 249 244 242 245 250 251 253 256 263 267 265 266 269 270 271 271 272
334 336 337 338 337 334 333 338 343 346 350 349 344 338 326 311 305 292 279 273 272 270 266 267 266 261 256 250 250 252 254 256 254 257 263 267 269 271 272 272 274 275 276
331 330 330 329 330 330 328 332 338 340 340 340 333 329 327 309 299 297 282 280 273 276 276 270 270 266 262 258 258 261 264 261 261 263 265 268 274 276 276 276 278 279 279
325 328 324 323 326 328 327 329 330 331 331 329 327 321 316 312 300 296 289 282 276 276 287 276 274 273 273 270 268 270 267 267 266 267 267 270 273 274 277 280 282 282 282
324 323 320 320 323 326 329 330 327 327 329 328 327 321 315 312 305 291 285 285 282 284 289 285 277 279 279 275 273 274 274 273 270 269 270 272 274 276 277 280 283 283 282
325 322 323 317 321 326 331 329 326 327 331 332 328 325 314 305 302 294 293 288 285 287 286 284 278 277 278 277 278 281 278 276 275 273 273 275 276 278 279 281 282 282 283
327 325 318 323 325 326 328 330 331 330 328 329 328 325 320 310 297 291 290 293 293 291 290 288 285 283 281 281 283 285 285 281 279 278 278 278 277 279 280 282 284 284 285
326 328 326 324 328 327 327 329 332 332 330 329 330 331 326 318 307 299 296 295 294 294 294 292 289 287 284 284 286 288 287 285 282 282 282 281 281 282 282 283 283 284 285
321 322 321 321 320 324 326 327 330 327 327 329 330 328 322 317 311 307 298 295 297 297 297 297 295 294 289 289 288 288 289 288 287 286 285 286 287 287 286 286 285 285 284
317 315 313 313 314 321 324 324 326 325 324 327 325 323 317 313 310 307 299 296 296 296 298 297 296 295 294 293 291 290 290 291 291 290 290 291 290 289 288 288 287 286 286
306 310 308 310 314 317 319 319 319 318 318 320 320 315 311 308 310 308 299 296 297 296 295 296 295 294 294 294 293 293 291 292 293 293 293 293 293 291 290 288 288 288 288
300 305 309 311 311 311 313 314 316 317 316 316 318 311 309 307 306 306 302 299 295 294 296 297 299 300 298 295 294 293 293 294 295 295 295 295 294 294 293 292 291 292 291
294 298 302 302 305 305 306 308 310 312 314 314 314 312 307 311 309 305 307 305 301 299 298 298 299 300 301 300 299 298 297 298 298 297 297 295 293 293 293 292 291 291 291
289 292 295 296 298 297 299 303 306 306 307 309 308 306 306 306 309 307 305 305 305 305 301 299 301 301 301 301 300 300 299 297 297 297 297 297 296 294 293 292 291 291 292
287 290 292 294 296 293 294 298 299 300 302 303 305 304 303 305 306 307 307 306 304 303 303 302 302 303 302 302 301 301 301 301 299 297 298 298 297 294 294 293 292 293 292
284 287 290 291 291 291 294 296 295 294 295 298 300 298 300 301 304 305 306 307 308 305 302 301 302 302 301 301 301 300 301 301 301 300 300 299 297 295 295 294 294 293 293
282 283 285 286 286 289 291 292 294 291 291 292 294 295 296 299 301 303 304 305 305 303 301 301 301 301 301 302 302 301 300 301 301 301 300 299 297 296 295 295 295 295 295
278 279 281 284 285 286 287 289 291 289 289 290 292 293 294 295 297 300 303 304 303 303 302 301 301 301 301 301 301 301 301 300 300 300 299 298 297 296 295 295 296 295 295
273 275 278 281 282 283 285 287 288 288 289 290 291 291 292 294 296 299 300 301 300 300 301 301 302 301 301 300 300 299 299 299 299 299 297 296 296 296 295 294 294 294 295
272 273 276 278 280 281 282 283 285 288 288 286 288 290 292 292 294 296 298 299 299 299 300 299 299 300 299 299 298 297 297 297 297 297 296 295 295 296 295 295 296 295 296
271 272 273 275 277 279 280 281 282 284 285 285 285 287 289 292 293 294 297 297 297 299 299 299 298 298 298 298 297 297 297 296 295 294 294 294 294 294 295 295 295 296 296
271 271 271 273 274 275 277 278 280 281 281 283 285 286 288 290 292 293 294 296 298 298 299 299 298 297 297 298 297 297 298 297 296 294 293 292 293 293 294 295 295 296 296
Height
5924 5922 5919 5917 5915 5913 5911 5909 5907 5905 5904 5902 5902 5901 5901 5900 5900 5900 5900 5900 5900 5900 5900 5901 5901 5902 5903 5904 5905 5905 5906 5906 5907 5907 5907 5907 5907 5907 5907 5906 5906 5905 5905
5924 5922 5920 5917 5915 5913 5911 5909 5907 5905 5904 5902 5901 5900 5900 5899 5899 5899 5899 5899 5899 5899 5899 5900 5900 5901 5902 5902 5903 5904 5904 5905 5905 5906 5906 5906 5907 5906 5905 5905 5905 5904 5903
5924 5921 5919 5917 5915 5913 5911 5909 5907 5905 5903 5901 5900 5899 5899 5898 5898 5898 5898 5898 5898 5898 5898 5898 5899 5899 5900 5900 5901 5902 5903 5903 5903 5904 5904 5904 5904 5904 5904 5903 5902 5902 5901
5922 5920 5918 5916 5914 5912 5910 5908 5906 5904 5902 5901 5899 5898 5898 5897 5896 5896 5896 5897 5897 5897 5897 5897 5897 5898 5898 5898 5899 5899 5900 5900 5901 5901 5902 5902 5901 5901 5901 5901 5900 5899 5899
5921 5919 5917 5915 5913 5912 5910 5907 5905 5903 5902 5900 5899 5898 5897 5897 5896 5895 5895 5896 5896 5896 5896 5896 5896 5896 5896 5896 5896 5897 5897 5898 5898 5898 5898 5898 5898 5898 5898 5897 5897 5896 5895
5920 5918 5915 5914 5912 5910 5908 5906 5904 5902 5901 5900 5898 5897 5896 5895 5894 5894 5894 5894 5894 5894 5894 5894 5894 5894 5894 5894 5894 5894 5894 5894 5895 5895 5895 5895 5895 5895 5894 5894 5893 5893 5892
5918 5916 5914 5912 5910 5909 5907 5905 5903 5901 5900 5899 5898 5896 5895 5893 5893 5893 5893 5893 5892 5892 5892 5892 5892 5892 5891 5891 5891 5891 5891 5891 5891 5892 5892 5891 5891 5891 5890 5890 5889 5888 5887
5917 5914 5912 5910 5908 5906 5905 5903 5901 5900 5898 5897 5896 5895 5894 5893 5892 5892 5891 5891 5891 5891 5890 5890 5890 5889 5889 5889 5889 5888 5888 5888 5888 5888 5888 5887 5887 5887 5886 5886 5884 5883 5883
5914 5911 5909 5907 5905 5904 5903 5901 5899 5898 5896 5895 5894 5893 5892 5891 5891 5890 5890 5890 5889 5889 5888 5887 5887 5887 5887 5886 5886 5885 5885 5884 5884 5884 5884 5883 5883 5882 5882 5881 5880 5879 5878
5911 5908 5906 5903 5903 5902 5900 5899 5897 5895 5894 5893 5892 5891 5891 5890 5889 5889 5888 5888 5887 5887 5886 5885 5885 5884 5884 5884 5883 5882 5882 5881 5881 5880 5880 5879 5878 5878 5877 5876 5874 5873 5872
5909 5907 5904 5901 5901 5900 5899 5897 5895 5894 5893 5892 5891 5890 5889 5888 5888 5887 5886 5886 5885 5885 5884 5883 5882 5882 5881 5880 5880 5879 5878 5877 5877 5876 5875 5874 5873 5873 5871 5870 5869 5867 5866
5907 5905 5903 5901 5901 5899 5897 5896 5894 5892 5891 5890 5889 5888 5887 5886 5885 5885 5884 5883 5883 5882 5881 5880 5879 5879 5878 5877 5876 5875 5874 5873 5873 5872 5871 5870 5868 5867 5866 5864 5863 5861 5860
5905 5903 5901 5900 5899 5897 5896 5894 5892 5891 5890 5888 5887 5887 5886 5884 5883 5882 5881 5881 5880 5879 5878 5877 5876 5875 5875 5874 5873 5872 5871 5869 5868 5867 5866 5865 5863 5862 5860 5858 5857 5855 5853
5903 5901 5899 5898 5896 5895 5894 5892 5890 5889 5888 5886 5886 5885 5883 5882 5881 5880 5879 5878 5877 5876 5875 5874 5873 5872 5871 5870 5869 5868 5867 5865 5864 5863 5861 5859 5858 5856 5854 5853 5851 5849 5847
5900 5899 5897 5896 5894 5892 5891 5890 5889 5887 5886 5884 5883 5882 5880 5879 5878 5877 5876 5875 5874 5873 5871 5870 5869 5868 5867 5866 5865 5864 5863 5861 5859 5858 5856 5854 5853 5851 5849 5847 5845 5843 5841
5896 5895 5894 5892 5891 5889 5888 5887 5886 5885 5883 5882 5880 5877 5877 5876 5875 5874 5872 5871 5870 5869 5868 5867 5866 5864 5863 5862 5861 5859 5858 5856 5854 5853 5851 5849 5847 5845 5843 5841 5839 5837 5835
5892 5891 5890 5889 5888 5887 5886 5884 5883 5882 5880 5879 5877 5874 5873 5873 5872 5870 5869 5868 5867 5865 5864 5863 5862 5860 5859 5858 5856 5854 5853 5851 5849 5847 5845 5843 5841 5839 5837 5835 5833 5831 5829
5887 5887 5886 5885 5884 5883 5882 5881 5880 5878 5877 5875 5874 5873 5871 5870 5869 5867 5866 5864 5863 5861 5860 5859 5858 5856 5855 5853 5851 5849 5847 5846 5843 5842 5840 5838 5835 5833 5831 5829 5827 5825 5823
5883 5882 5882 5881 5880 5879 5878 5877 5876 5875 5873 5872 5870 5869 5868 5867 5865 5864 5862 5861 5859 5857 5856 5855 5853 5852 5850 5849 5846 5844 5842 5840 5837 5835 5833 5831 5829 5827 5825 5823 5821 5819 5817
5879 5878 5878 5877 5876 5875 5874 5873 5871 5870 5869 5868 5866 5865 5864 5863 5861 5860 5858 5856 5855 5853 5851 5850 5848 5847 5845 5843 5841 5839 5837 5835 5832 5830 5828 5826 5823 5821 5819 5817 5815 5813 5810
5874 5874 5873 5872 5871 5870 5869 5868 5867 5865 5864 5863 5862 5861 5860 5858 5857 5855 5854 5852 5850 5849 5847 5845 5843 5842 5840 5838 5835 5833 5831 5829 5826 5824 5822 5819 5817 5815 5812 5810 5808 5805 5803
5868 5868 5868 5867 5866 5865 5864 5863 5862 5861 5859 5858 5857 5856 5855 5853 5852 5850 5849 5847 5845 5844 5842 5840 5838 5836 5834 5831 5829 5827 5825 5823 5820 5818 5815 5813 5810 5808 5805 5803 5800 5798 5795
5861 5861 5861 5860 5860 5859 5859 5857 5856 5854 5854 5853 5851 5850 5849 5848 5846 5845 5843 5841 5840 5838 5836 5834 5832 5830 5827 5825 5822 5820 5818 5816 5813 5811 5808 5805 5803 5800 5798 5795 5792 5789 5786
5854 5854 5854 5854 5853 5853 5852 5851 5849 5848 5847 5846 5845 5844 5843 5841 5840 5838 5837 5835 5833 5831 5829 5827 5825 5823 5820 5818 5815 5813 5810 5808 5805 5803 5800 5797 5795 5792 5789 5786 5783 5780 5777
5846 5846 5847 5846 5846 5845 5844 5844 5843 5842 5841 5839 5838 5837 5836 5835 5833 5832 5830 5828 5826 5824 5822 5820 5817 5815 5813 5810 5807 5805 5802 5799 5797 5794 5791 5789 5786 5783 5780 5777 5774 5771 5768
5837 5836 5837 5837 5837 5837 5836 5836 5835 5834 5833 5832 5831 5830 5829 5828 5826 5824 5822 5820 5818 5816 5814 5811 5809 5806 5804 5801 5799 5796 5793 5790 5788 5785 5782 5779 5777 5774 5771 5768 5765 5762 5759